Regional Weather Roundup
Issued by NWS State College, PA

Home | Current Version | Previous Version | Text Only | Print | Product List | Glossary On
Versions: 1 2 3 4 5 6 7 8 9 10 11 12 13 14 15 16 17 18 19 20 21 22 23 24 25 26 27 28 29 30 31 32 33 34 35 36 37 38 39 40 41 42 43 44 45 46 47 48 49 50
000
ASUS41 KCTP 262310
RWRCTP

REGIONAL WEATHER ROUNDUP
NATIONAL WEATHER SERVICE STATE COLLEGE PA
600 PM EST THU FEB 26 2015

Note: "fair" indicates few or no clouds below 12,000 feet with no
significant weather and/or obstructions to visibility.

* = STATION THAT DOES NOT REPORT PRECIPITATION /E.G. RAIN...SNOW...ETC/
    THUNDER OR FOG.

PAZ002>004-007>009-013>016-020>023-029>032-270000-
WESTERN PENNSYLVANIA

CITY           SKY/WX    TMP DP  RH WIND       PRES   REMARKS
ERIE           CLOUDY    11   4  73 N6        30.14R WCI   1
MEADVILLE      LGT SNOW  10   3  73 N8        30.05R WCI  -2
FRANKLIN*      PTCLDY    10   1  67 N6        30.03R WCI   1
NEW CASTLE     FLURRIES  12   5  73 NW9       30.09R WCI   0
BEAVER COUNTY  FLURRIES  14   7  73 NW9G17    30.05R WCI   2
BUTLER*        CLOUDY    16   9  73 NW5       30.05R WCI   9
PITTSBURGH INT FLURRIES  17  10  74 NW14      30.04R WCI   3
PITTSBURGH     CLOUDY    19   9  65 NW8       30.02R WCI   9
INDIANA*       CLOUDY    23  19  86 VRB6      30.01R
LATROBE        CLOUDY    23  19  86 NW8       30.02R WCI  14
WASHINGTON CO* CLOUDY    19  10  68 NW6       30.05R WCI  11
$$

PAZ004>006-010>012-017>019-024>028-033>037-041-042-045-046-049>053-270000-
CENTRAL PENNSYLVANIA

CITY           SKY/WX    TMP DP  RH WIND       PRES   REMARKS
BRADFORD       LGT SNOW  13   6  74 N8        29.93R WCI   2
DUBOIS         MOCLDY    19  13  77 NW7       29.93R WCI  10
CLEARFIELD     LGT SNOW  23  16  74 CALM      29.95R
JOHNSTOWN      LGT SNOW  22  18  85 NW9       29.89R FOG     WCI  12
ALTOONA        CLOUDY    25  16  68 W5        29.94R
STATE COLLEGE  CLOUDY    23  12  63 CALM      29.96R
WILLIAMSPORT   MOCLDY    25   9  50 N6        30.01R
SELINSGROVE    MOCLDY    26  12  55 CALM      30.01R
FT INDIANTOWN  MOCLDY    28  15  59 NE5       30.00R
CAPITAL CITY   MOCLDY    28  16  60 NW6       30.02R
HARRISBURG     MOCLDY    28  17  63 N6        30.01R
YORK           CLOUDY    30  18  60 NW3       30.00R
$$

PAZ038>040-043-044-047-048-054-055-060>062-067>071-270000-
EASTERN PENNSYLVANIA

CITY           SKY/WX    TMP DP  RH WIND       PRES   REMARKS
SCRANTON       CLOUDY    21  11  65 N8        29.98S WCI  11
MOUNT POCONO   CLOUDY    18  10  71 NW7       29.89R WCI   9
ALLENTOWN      CLOUDY    26  15  63 CALM      30.00R
QUAKERTOWN*    CLOUDY    25  16  68 CALM      30.01R
READING        CLOUDY    29  17  61 CALM      30.01R
LANCASTER      CLOUDY    28  19  69 E5        30.00R
COATESVILLE    CLOUDY    28  19  69 NE3       30.00R
POTTSTOWN      CLOUDY    27  16  63 CALM      30.04R
BLUE BELL      PTCLDY    30  18  59 CALM      30.02R
DOYLESTOWN     CLOUDY    24  15  68 CALM      30.01R
WILLOW GROVE   NOT AVBL
NORTH PHILA    CLOUDY    30  15  53 N7        30.04R
PHILADELPHIA   CLOUDY    30  17  58 N9        30.04R
$$



USA.gov is the U.S. government's official web portal to all federal, state and local government web resources and services.